Year,Month,Day,Hour,Minute,Value (Times are PST for temperature in C)
2010,08,23,00,00,14.00
2010,08,23,00,01,14.00
2010,08,23,00,02,14.00
2010,08,23,00,03,14.00
2010,08,23,00,04,14.00
2010,08,23,00,05,14.00
2010,08,23,00,06,14.00
2010,08,23,00,07,14.00
2010,08,23,00,08,14.00
2010,08,23,00,09,14.00
2010,08,23,00,10,14.00
2010,08,23,00,11,14.00
2010,08,23,00,12,14.00
2010,08,23,00,13,13.90
2010,08,23,00,14,13.90
2010,08,23,00,15,13.90
2010,08,23,00,16,13.90
2010,08,23,00,17,13.90
2010,08,23,00,18,13.90
2010,08,23,00,19,13.90
2010,08,23,00,20,13.90
2010,08,23,00,21,13.90
2010,08,23,00,22,13.90
2010,08,23,00,23,13.90
2010,08,23,00,24,13.90
2010,08,23,00,25,13.90
2010,08,23,00,26,13.90
2010,08,23,00,27,13.90
2010,08,23,00,28,13.90
2010,08,23,00,29,13.90
2010,08,23,00,30,13.90
2010,08,23,00,31,13.90
2010,08,23,00,32,13.90
2010,08,23,00,33,13.90
2010,08,23,00,34,13.90
2010,08,23,00,35,13.90
2010,08,23,00,36,13.90
2010,08,23,00,37,13.90
2010,08,23,00,38,13.90
2010,08,23,00,39,13.90
2010,08,23,00,40,13.90
2010,08,23,00,41,13.90
2010,08,23,00,42,13.90
2010,08,23,00,43,13.90
2010,08,23,00,44,13.90
2010,08,23,00,45,13.90
2010,08,23,00,46,13.90
2010,08,23,00,47,13.80
2010,08,23,00,48,13.80
2010,08,23,00,49,13.80
2010,08,23,00,50,13.80
2010,08,23,00,51,13.80
2010,08,23,00,52,13.80
2010,08,23,00,53,13.80
2010,08,23,00,54,13.80
2010,08,23,00,55,13.80
2010,08,23,00,56,13.80
2010,08,23,00,57,13.80
2010,08,23,00,58,13.80
2010,08,23,00,59,13.80
2010,08,23,01,00,13.80
2010,08,23,01,01,13.80
2010,08,23,01,02,13.80
2010,08,23,01,03,13.80
2010,08,23,01,04,13.80
2010,08,23,01,05,13.80
2010,08,23,01,06,13.80
2010,08,23,01,07,13.80
2010,08,23,01,08,13.80
2010,08,23,01,09,13.80
2010,08,23,01,10,13.80
2010,08,23,01,11,13.80
2010,08,23,01,12,13.80
2010,08,23,01,13,13.80
2010,08,23,01,14,13.80
2010,08,23,01,15,13.80
2010,08,23,01,16,13.80
2010,08,23,01,17,13.80
2010,08,23,01,18,13.80
2010,08,23,01,19,13.80
2010,08,23,01,20,13.80
2010,08,23,01,21,13.80
2010,08,23,01,22,13.80
2010,08,23,01,23,13.80
2010,08,23,01,24,13.80
2010,08,23,01,25,13.80
2010,08,23,01,26,13.80
2010,08,23,01,27,13.80
2010,08,23,01,28,13.80
2010,08,23,01,29,13.80
2010,08,23,01,30,13.80
2010,08,23,01,31,13.80
2010,08,23,01,32,13.80
2010,08,23,01,33,13.80
2010,08,23,01,34,13.80
2010,08,23,01,35,13.80
2010,08,23,01,36,13.80
2010,08,23,01,37,13.80
2010,08,23,01,38,13.80
2010,08,23,01,39,13.80
2010,08,23,01,40,13.80
2010,08,23,01,41,13.80
2010,08,23,01,42,13.80
2010,08,23,01,43,13.80
2010,08,23,01,44,13.80
2010,08,23,01,45,13.80
2010,08,23,01,46,13.80
2010,08,23,01,47,13.80
2010,08,23,01,48,13.80
2010,08,23,01,49,13.80
2010,08,23,01,50,13.90
2010,08,23,01,51,13.90
2010,08,23,01,52,13.90
2010,08,23,01,53,13.90
2010,08,23,01,54,13.90
2010,08,23,01,55,13.90
2010,08,23,01,56,13.90
2010,08,23,01,57,13.90
2010,08,23,01,58,13.90
2010,08,23,01,59,13.90
2010,08,23,02,00,13.90
2010,08,23,02,01,13.90
2010,08,23,02,02,13.90
2010,08,23,02,03,13.90
2010,08,23,02,04,13.90
2010,08,23,02,05,13.90
2010,08,23,02,06,13.90
2010,08,23,02,07,13.90
2010,08,23,02,08,13.90
2010,08,23,02,09,13.90
2010,08,23,02,10,13.90
2010,08,23,02,11,13.90
2010,08,23,02,12,13.90
2010,08,23,02,13,13.90
2010,08,23,02,14,13.90
2010,08,23,02,15,13.90
2010,08,23,02,16,13.90
2010,08,23,02,17,13.90
2010,08,23,02,18,13.90
2010,08,23,02,19,13.90
2010,08,23,02,20,13.90
2010,08,23,02,21,13.90
2010,08,23,02,22,13.90
2010,08,23,02,23,13.90
2010,08,23,02,24,13.90
2010,08,23,02,25,13.90
2010,08,23,02,26,13.90
2010,08,23,02,27,13.90
2010,08,23,02,28,13.90
2010,08,23,02,29,13.80
2010,08,23,02,30,13.80
2010,08,23,02,31,13.80
2010,08,23,02,32,13.80
2010,08,23,02,33,13.80
2010,08,23,02,34,13.80
2010,08,23,02,35,13.80
2010,08,23,02,36,13.80
2010,08,23,02,37,13.80
2010,08,23,02,38,13.70
2010,08,23,02,39,13.70
2010,08,23,02,40,13.70
2010,08,23,02,41,13.70
2010,08,23,02,42,13.70
2010,08,23,02,43,13.70
2010,08,23,02,44,13.70
2010,08,23,02,45,13.70
2010,08,23,02,46,13.70
2010,08,23,02,47,13.70
2010,08,23,02,48,13.60
2010,08,23,02,49,13.60
2010,08,23,02,50,13.60
2010,08,23,02,51,13.60
2010,08,23,02,52,13.60
2010,08,23,02,53,13.60
2010,08,23,02,54,13.50
2010,08,23,02,55,13.50
2010,08,23,02,56,13.50
2010,08,23,02,57,13.50
2010,08,23,02,58,13.40
2010,08,23,02,59,13.40
2010,08,23,03,00,13.40
2010,08,23,03,01,13.40
2010,08,23,03,02,13.40
2010,08,23,03,03,13.40
2010,08,23,03,04,13.30
2010,08,23,03,05,13.30
2010,08,23,03,06,13.30
2010,08,23,03,07,13.30
2010,08,23,03,08,13.30
2010,08,23,03,09,13.30
2010,08,23,03,10,13.30
2010,08,23,03,11,13.30
2010,08,23,03,12,13.30
2010,08,23,03,13,13.20
2010,08,23,03,14,13.20
2010,08,23,03,15,13.20
2010,08,23,03,16,13.20
2010,08,23,03,17,13.20
2010,08,23,03,18,13.20
2010,08,23,03,19,13.10
2010,08,23,03,20,13.10
2010,08,23,03,21,13.10
2010,08,23,03,22,13.00
2010,08,23,03,23,13.00
2010,08,23,03,24,13.00
2010,08,23,03,25,12.90
2010,08,23,03,26,12.90
2010,08,23,03,27,12.90
2010,08,23,03,28,12.80
2010,08,23,03,29,12.80
2010,08,23,03,30,12.80
2010,08,23,03,31,12.80
2010,08,23,03,32,12.80
2010,08,23,03,33,12.80
2010,08,23,03,34,12.80
2010,08,23,03,35,12.80
2010,08,23,03,36,12.80
2010,08,23,03,37,12.80
2010,08,23,03,38,12.80
2010,08,23,03,39,12.80
2010,08,23,03,40,12.80
2010,08,23,03,41,12.70
2010,08,23,03,42,12.70
2010,08,23,03,43,12.70
2010,08,23,03,44,12.70
2010,08,23,03,45,12.70
2010,08,23,03,46,12.70
2010,08,23,03,47,12.70
2010,08,23,03,48,12.70
2010,08,23,03,49,12.70
2010,08,23,03,50,12.70
2010,08,23,03,51,12.70
2010,08,23,03,52,12.70
2010,08,23,03,53,12.70
2010,08,23,03,54,12.70
2010,08,23,03,55,12.70
2010,08,23,03,56,12.70
2010,08,23,03,57,12.60
2010,08,23,03,58,12.60
2010,08,23,03,59,12.60
2010,08,23,04,00,12.60
2010,08,23,04,01,12.60
2010,08,23,04,02,12.60
2010,08,23,04,03,12.60
2010,08,23,04,04,12.60
2010,08,23,04,05,12.50
2010,08,23,04,06,12.50
2010,08,23,04,07,12.50
2010,08,23,04,08,12.50
2010,08,23,04,09,12.40
2010,08,23,04,10,12.40
2010,08,23,04,11,12.40
2010,08,23,04,12,12.40
2010,08,23,04,13,12.40
2010,08,23,04,14,12.40
2010,08,23,04,15,12.30
2010,08,23,04,16,12.30
2010,08,23,04,17,12.30
2010,08,23,04,18,12.30
2010,08,23,04,19,12.30
2010,08,23,04,20,12.30
2010,08,23,04,21,12.20
2010,08,23,04,22,12.20
2010,08,23,04,23,12.20
2010,08,23,04,24,12.20
2010,08,23,04,25,12.10
2010,08,23,04,26,12.10
2010,08,23,04,27,12.10
2010,08,23,04,28,12.10
2010,08,23,04,29,12.10
2010,08,23,04,30,12.10
2010,08,23,04,31,12.10
2010,08,23,04,32,12.10
2010,08,23,04,33,12.10
2010,08,23,04,34,12.10
2010,08,23,04,35,12.10
2010,08,23,04,36,12.00
2010,08,23,04,37,12.00
2010,08,23,04,38,12.00
2010,08,23,04,39,12.00
2010,08,23,04,40,12.00
2010,08,23,04,41,12.00
2010,08,23,04,42,12.00
2010,08,23,04,43,11.90
2010,08,23,04,44,11.90
2010,08,23,04,45,11.90
2010,08,23,04,46,11.90
2010,08,23,04,47,11.90
2010,08,23,04,48,11.90
2010,08,23,04,49,11.90
2010,08,23,04,50,11.90
2010,08,23,04,51,11.80
2010,08,23,04,52,11.80
2010,08,23,04,53,11.80
2010,08,23,04,54,11.80
2010,08,23,04,55,11.80
2010,08,23,04,56,11.80
2010,08,23,04,57,11.80
2010,08,23,04,58,11.70
2010,08,23,04,59,11.70
2010,08,23,05,00,11.70
2010,08,23,05,01,11.70
2010,08,23,05,02,11.70
2010,08,23,05,03,11.70
2010,08,23,05,04,11.60
2010,08,23,05,05,11.60
2010,08,23,05,06,11.60
2010,08,23,05,07,11.60
2010,08,23,05,08,11.50
2010,08,23,05,09,11.50
2010,08,23,05,10,11.50
2010,08,23,05,11,11.40
2010,08,23,05,12,11.40
2010,08,23,05,13,11.40
2010,08,23,05,14,11.40
2010,08,23,05,15,11.40
2010,08,23,05,16,11.40
2010,08,23,05,17,11.40
2010,08,23,05,18,11.40
2010,08,23,05,19,11.30
2010,08,23,05,20,11.30
2010,08,23,05,21,11.30
2010,08,23,05,22,11.30
2010,08,23,05,23,11.30
2010,08,23,05,24,11.30
2010,08,23,05,25,11.30
2010,08,23,05,26,11.20
2010,08,23,05,27,11.20
2010,08,23,05,28,11.20
2010,08,23,05,29,11.20
2010,08,23,05,30,11.20
2010,08,23,05,31,11.20
2010,08,23,05,32,11.10
2010,08,23,05,33,11.10
2010,08,23,05,34,11.10
2010,08,23,05,35,11.10
2010,08,23,05,36,11.10
2010,08,23,05,37,11.10
2010,08,23,05,38,11.10
2010,08,23,05,39,11.10
2010,08,23,05,40,11.10
2010,08,23,05,41,11.10
2010,08,23,05,42,11.10
2010,08,23,05,43,11.00
2010,08,23,05,44,11.00
2010,08,23,05,45,11.00
2010,08,23,05,46,11.00
2010,08,23,05,47,11.00
2010,08,23,05,48,11.00
2010,08,23,05,49,11.00
2010,08,23,05,50,11.00
2010,08,23,05,51,11.00
2010,08,23,05,52,11.00
2010,08,23,05,53,11.00
2010,08,23,05,54,11.00
2010,08,23,05,55,11.00
2010,08,23,05,56,11.00
2010,08,23,05,57,11.00
2010,08,23,05,58,10.90
2010,08,23,05,59,10.90
2010,08,23,06,00,10.90
2010,08,23,06,01,10.90
2010,08,23,06,02,10.90
2010,08,23,06,03,10.90
2010,08,23,06,04,10.90
2010,08,23,06,05,10.90
2010,08,23,06,06,10.90
2010,08,23,06,07,10.90
2010,08,23,06,08,10.90
2010,08,23,06,09,10.90
2010,08,23,06,10,10.90
2010,08,23,06,11,10.90
2010,08,23,06,12,10.90
2010,08,23,06,13,10.90
2010,08,23,06,14,10.90
2010,08,23,06,15,10.80
2010,08,23,06,16,10.80
2010,08,23,06,17,10.80
2010,08,23,06,18,10.80
2010,08,23,06,19,10.80
2010,08,23,06,20,10.80
2010,08,23,06,21,10.80
2010,08,23,06,22,10.80
2010,08,23,06,23,10.80
2010,08,23,06,24,10.80
2010,08,23,06,25,10.80
2010,08,23,06,26,10.80
2010,08,23,06,27,10.80
2010,08,23,06,28,10.80
2010,08,23,06,29,10.80
2010,08,23,06,30,10.80
2010,08,23,06,31,10.80
2010,08,23,06,32,10.70
2010,08,23,06,33,10.70
2010,08,23,06,34,10.70
2010,08,23,06,35,10.70
2010,08,23,06,36,10.70
2010,08,23,06,37,10.70
2010,08,23,06,38,10.70
2010,08,23,06,39,10.70
2010,08,23,06,40,10.80
2010,08,23,06,41,10.80
2010,08,23,06,42,10.80
2010,08,23,06,43,10.80
2010,08,23,06,44,10.80
2010,08,23,06,45,10.80
2010,08,23,06,46,10.80
2010,08,23,06,47,10.80
2010,08,23,06,48,10.80
2010,08,23,06,49,10.80
2010,08,23,06,50,10.80
2010,08,23,06,51,10.80
2010,08,23,06,52,10.80
2010,08,23,06,53,10.90
2010,08,23,06,54,10.90
2010,08,23,06,55,10.90
2010,08,23,06,56,10.90
2010,08,23,06,57,10.90
2010,08,23,06,58,11.00
2010,08,23,06,59,11.00
2010,08,23,07,00,11.00
2010,08,23,07,01,11.10
2010,08,23,07,02,11.10
2010,08,23,07,03,11.10
2010,08,23,07,04,11.10
2010,08,23,07,05,11.10
2010,08,23,07,06,11.20
2010,08,23,07,07,11.20
2010,08,23,07,08,11.20
2010,08,23,07,09,11.20
2010,08,23,07,10,11.20
2010,08,23,07,11,11.20
2010,08,23,07,12,11.20
2010,08,23,07,13,11.20
2010,08,23,07,14,11.20
2010,08,23,07,15,11.20
2010,08,23,07,16,11.30
2010,08,23,07,17,11.30
2010,08,23,07,18,11.30
2010,08,23,07,19,11.30
2010,08,23,07,20,11.30
2010,08,23,07,21,11.30
2010,08,23,07,22,11.30
2010,08,23,07,23,11.40
2010,08,23,07,24,11.40
2010,08,23,07,25,11.40
2010,08,23,07,26,11.40
2010,08,23,07,27,11.50
2010,08,23,07,28,11.50
2010,08,23,07,29,11.60
2010,08,23,07,30,11.60
2010,08,23,07,31,11.70
2010,08,23,07,32,11.70
2010,08,23,07,33,11.80
2010,08,23,07,34,11.80
2010,08,23,07,35,11.90
2010,08,23,07,36,12.00
2010,08,23,07,37,12.10
2010,08,23,07,38,12.10
2010,08,23,07,39,12.20
2010,08,23,07,40,12.20
2010,08,23,07,41,12.30
2010,08,23,07,42,12.30
2010,08,23,07,43,12.40
2010,08,23,07,44,12.40
2010,08,23,07,45,12.50
2010,08,23,07,46,12.50
2010,08,23,07,47,12.60
2010,08,23,07,48,12.60
2010,08,23,07,49,12.70
2010,08,23,07,50,12.70
2010,08,23,07,51,12.80
2010,08,23,07,52,12.80
2010,08,23,07,53,12.90
2010,08,23,07,54,12.90
2010,08,23,07,55,13.00
2010,08,23,07,56,13.10
2010,08,23,07,57,13.10
2010,08,23,07,58,13.20
2010,08,23,07,59,13.20
2010,08,23,08,00,13.20
2010,08,23,08,01,13.20
2010,08,23,08,02,13.30
2010,08,23,08,03,13.30
2010,08,23,08,04,13.30
2010,08,23,08,05,13.30
2010,08,23,08,06,13.30
2010,08,23,08,07,13.40
2010,08,23,08,08,13.40
2010,08,23,08,09,13.40
2010,08,23,08,10,13.40
2010,08,23,08,11,13.40
2010,08,23,08,12,13.40
2010,08,23,08,13,13.40
2010,08,23,08,14,13.40
2010,08,23,08,15,13.40
2010,08,23,08,16,13.50
2010,08,23,08,17,13.50
2010,08,23,08,18,13.60
2010,08,23,08,19,13.60
2010,08,23,08,20,13.60
2010,08,23,08,21,13.60
2010,08,23,08,22,13.70
2010,08,23,08,23,13.70
2010,08,23,08,24,13.70
2010,08,23,08,25,13.80
2010,08,23,08,26,13.80
2010,08,23,08,27,13.80
2010,08,23,08,28,13.90
2010,08,23,08,29,13.90
2010,08,23,08,30,14.00
2010,08,23,08,31,14.10
2010,08,23,08,32,14.10
2010,08,23,08,33,14.20
2010,08,23,08,34,14.20
2010,08,23,08,35,14.30
2010,08,23,08,36,14.30
2010,08,23,08,37,14.40
2010,08,23,08,38,14.50
2010,08,23,08,39,14.50
2010,08,23,08,40,14.70
2010,08,23,08,41,14.80
2010,08,23,08,42,14.90
2010,08,23,08,43,15.00
2010,08,23,08,44,15.00
2010,08,23,08,45,15.20
2010,08,23,08,46,15.40
2010,08,23,08,47,15.50
2010,08,23,08,48,15.70
2010,08,23,08,49,15.90
2010,08,23,08,50,16.00
2010,08,23,08,51,16.20
2010,08,23,08,52,16.30
2010,08,23,08,53,16.40
2010,08,23,08,54,16.40
2010,08,23,08,55,16.50
2010,08,23,08,56,16.60
2010,08,23,08,57,16.60
2010,08,23,08,58,16.60
2010,08,23,08,59,16.70
2010,08,23,09,00,16.80
2010,08,23,09,01,16.80
2010,08,23,09,02,16.90
2010,08,23,09,03,17.00
2010,08,23,09,04,17.20
2010,08,23,09,05,17.30
2010,08,23,09,06,17.30
2010,08,23,09,07,17.40
2010,08,23,09,08,17.40
2010,08,23,09,09,17.50
2010,08,23,09,10,17.50
2010,08,23,09,11,17.60
2010,08,23,09,12,17.50
2010,08,23,09,13,17.40
2010,08,23,09,14,17.30
2010,08,23,09,15,17.20
2010,08,23,09,16,17.00
2010,08,23,09,17,16.80
2010,08,23,09,18,16.70
2010,08,23,09,19,16.60
2010,08,23,09,20,16.40
2010,08,23,09,21,16.30
2010,08,23,09,22,16.30
2010,08,23,09,23,16.30
2010,08,23,09,24,16.30
2010,08,23,09,25,16.30
2010,08,23,09,26,16.20
2010,08,23,09,27,16.20
2010,08,23,09,28,16.10
2010,08,23,09,29,16.10
2010,08,23,09,30,16.10
2010,08,23,09,31,16.10
2010,08,23,09,32,16.10
2010,08,23,09,33,16.20
2010,08,23,09,34,16.20
2010,08,23,09,35,16.30
2010,08,23,09,36,16.30
2010,08,23,09,37,16.40
2010,08,23,09,38,16.50
2010,08,23,09,39,16.50
2010,08,23,09,40,16.60
2010,08,23,09,41,16.70
2010,08,23,09,42,16.80
2010,08,23,09,43,16.90
2010,08,23,09,44,16.90
2010,08,23,09,45,16.90
2010,08,23,09,46,17.00
2010,08,23,09,47,17.10
2010,08,23,09,48,17.10
2010,08,23,09,49,17.00
2010,08,23,09,50,17.00
2010,08,23,09,51,16.90
2010,08,23,09,52,16.80
2010,08,23,09,53,16.80
2010,08,23,09,54,16.80
2010,08,23,09,55,16.80
2010,08,23,09,56,16.80
2010,08,23,09,57,16.80
2010,08,23,09,58,16.90
2010,08,23,09,59,17.00
2010,08,23,10,00,17.00
2010,08,23,10,01,17.10
2010,08,23,10,02,17.10
2010,08,23,10,03,17.20
2010,08,23,10,04,17.20
2010,08,23,10,05,17.30
2010,08,23,10,06,17.30
2010,08,23,10,07,17.30
2010,08,23,10,08,17.30
2010,08,23,10,09,17.40
2010,08,23,10,10,17.40
2010,08,23,10,11,17.30
2010,08,23,10,12,17.30
2010,08,23,10,13,17.20
2010,08,23,10,14,17.20
2010,08,23,10,15,17.10
2010,08,23,10,16,17.10
2010,08,23,10,17,17.10
2010,08,23,10,18,17.10
2010,08,23,10,19,17.10
2010,08,23,10,20,17.10
2010,08,23,10,21,17.10
2010,08,23,10,22,17.30
2010,08,23,10,23,17.30
2010,08,23,10,24,17.40
2010,08,23,10,25,17.50
2010,08,23,10,26,17.60
2010,08,23,10,27,17.70
2010,08,23,10,28,17.70
2010,08,23,10,29,17.70
2010,08,23,10,30,17.50
2010,08,23,10,31,17.40
2010,08,23,10,32,17.40
2010,08,23,10,33,17.50
2010,08,23,10,34,17.60
2010,08,23,10,35,17.70
2010,08,23,10,36,17.90
2010,08,23,10,37,17.90
2010,08,23,10,38,17.90
2010,08,23,10,39,18.00
2010,08,23,10,40,18.00
2010,08,23,10,41,18.00
2010,08,23,10,42,18.10
2010,08,23,10,43,18.10
2010,08,23,10,44,18.10
2010,08,23,10,45,18.20
2010,08,23,10,46,18.10
2010,08,23,10,47,18.10
2010,08,23,10,48,18.20
2010,08,23,10,49,18.30
2010,08,23,10,50,18.30
2010,08,23,10,51,18.30
2010,08,23,10,52,18.30
2010,08,23,10,53,18.30
2010,08,23,10,54,18.30
2010,08,23,10,55,18.30
2010,08,23,10,56,18.30
2010,08,23,10,57,18.50
2010,08,23,10,58,18.60
2010,08,23,10,59,18.80
2010,08,23,11,00,18.90
2010,08,23,11,01,19.00
2010,08,23,11,02,19.00
2010,08,23,11,03,19.00
2010,08,23,11,04,19.00
2010,08,23,11,05,18.80
2010,08,23,11,06,18.80
2010,08,23,11,07,18.80
2010,08,23,11,08,18.80
2010,08,23,11,09,18.80
2010,08,23,11,10,18.80
2010,08,23,11,11,18.80
2010,08,23,11,12,18.70
2010,08,23,11,13,18.70
2010,08,23,11,14,18.70
2010,08,23,11,15,18.60
2010,08,23,11,16,18.60
2010,08,23,11,17,18.50
2010,08,23,11,18,18.50
2010,08,23,11,19,18.40
2010,08,23,11,20,18.40
2010,08,23,11,21,18.40
2010,08,23,11,22,18.30
2010,08,23,11,23,18.20
2010,08,23,11,24,18.20
2010,08,23,11,25,18.10
2010,08,23,11,26,18.00
2010,08,23,11,27,18.00
2010,08,23,11,28,18.10
2010,08,23,11,29,18.20
2010,08,23,11,30,18.30
2010,08,23,11,31,18.30
2010,08,23,11,32,18.40
2010,08,23,11,33,18.50
2010,08,23,11,34,18.60
2010,08,23,11,35,18.70
2010,08,23,11,36,18.70
2010,08,23,11,37,18.80
2010,08,23,11,38,18.80
2010,08,23,11,39,18.90
2010,08,23,11,40,18.90
2010,08,23,11,41,18.80
2010,08,23,11,42,18.80
2010,08,23,11,43,18.80
2010,08,23,11,44,18.80
2010,08,23,11,45,18.80
2010,08,23,11,46,18.90
2010,08,23,11,47,18.90
2010,08,23,11,48,18.80
2010,08,23,11,49,18.80
2010,08,23,11,50,18.70
2010,08,23,11,51,18.70
2010,08,23,11,52,18.70
2010,08,23,11,53,18.70
2010,08,23,11,54,18.70
2010,08,23,11,55,18.70
2010,08,23,11,56,18.70
2010,08,23,11,57,18.60
2010,08,23,11,58,18.60
2010,08,23,11,59,18.60
2010,08,23,12,00,18.70
2010,08,23,12,01,18.70
2010,08,23,12,02,18.70
2010,08,23,12,03,18.60
2010,08,23,12,04,18.60
2010,08,23,12,05,18.60
2010,08,23,12,06,18.60
2010,08,23,12,07,18.60
2010,08,23,12,08,18.70
2010,08,23,12,09,18.80
2010,08,23,12,10,18.90
2010,08,23,12,11,19.10
2010,08,23,12,12,19.20
2010,08,23,12,13,19.20
2010,08,23,12,14,19.30
2010,08,23,12,15,19.30
2010,08,23,12,16,19.30
2010,08,23,12,17,19.30
2010,08,23,12,18,19.30
2010,08,23,12,19,19.40
2010,08,23,12,20,19.50
2010,08,23,12,21,19.60
2010,08,23,12,22,19.60
2010,08,23,12,23,19.50
2010,08,23,12,24,19.50
2010,08,23,12,25,19.50
2010,08,23,12,26,19.50
2010,08,23,12,27,19.50
2010,08,23,12,28,19.40
2010,08,23,12,29,19.40
2010,08,23,12,30,19.40
2010,08,23,12,31,19.40
2010,08,23,12,32,19.40
2010,08,23,12,33,19.50
2010,08,23,12,34,19.40
2010,08,23,12,35,19.40
2010,08,23,12,36,19.30
2010,08,23,12,37,19.10
2010,08,23,12,38,19.00
2010,08,23,12,39,19.10
2010,08,23,12,40,19.10
2010,08,23,12,41,19.30
2010,08,23,12,42,19.30
2010,08,23,12,43,19.30
2010,08,23,12,44,19.30
2010,08,23,12,45,19.20
2010,08,23,12,46,19.20
2010,08,23,12,47,19.20
2010,08,23,12,48,19.20
2010,08,23,12,49,19.20
2010,08,23,12,50,19.40
2010,08,23,12,51,19.50
2010,08,23,12,52,19.40
2010,08,23,12,53,19.30
2010,08,23,12,54,19.20
2010,08,23,12,55,19.10
2010,08,23,12,56,19.00
2010,08,23,12,57,19.00
2010,08,23,12,58,19.00
2010,08,23,12,59,19.10
2010,08,23,13,00,19.10
2010,08,23,13,01,19.10
2010,08,23,13,02,19.00
2010,08,23,13,03,19.00
2010,08,23,13,04,19.00
2010,08,23,13,05,19.10
2010,08,23,13,06,19.10
2010,08,23,13,07,19.20
2010,08,23,13,08,19.20
2010,08,23,13,09,19.20
2010,08,23,13,10,19.20
2010,08,23,13,11,19.30
2010,08,23,13,12,19.50
2010,08,23,13,13,19.60
2010,08,23,13,14,19.70
2010,08,23,13,15,19.80
2010,08,23,13,16,19.70
2010,08,23,13,17,19.50
2010,08,23,13,18,19.40
2010,08,23,13,19,19.40
2010,08,23,13,20,19.40
2010,08,23,13,21,19.40
2010,08,23,13,22,19.40
2010,08,23,13,23,19.40
2010,08,23,13,24,19.50
2010,08,23,13,25,19.60
2010,08,23,13,26,19.70
2010,08,23,13,27,19.70
2010,08,23,13,28,19.80
2010,08,23,13,29,19.80
2010,08,23,13,30,19.80
2010,08,23,13,31,19.80
2010,08,23,13,32,19.80
2010,08,23,13,33,19.70
2010,08,23,13,34,19.60
2010,08,23,13,35,19.50
2010,08,23,13,36,19.40
2010,08,23,13,37,19.50
2010,08,23,13,38,19.50
2010,08,23,13,39,19.60
2010,08,23,13,40,19.60
2010,08,23,13,41,19.70
2010,08,23,13,42,19.80
2010,08,23,13,43,19.80
2010,08,23,13,44,19.80
2010,08,23,13,45,19.80
2010,08,23,13,46,19.80
2010,08,23,13,47,19.80
2010,08,23,13,48,19.70
2010,08,23,13,49,19.70
2010,08,23,13,50,19.70
2010,08,23,13,51,19.60
2010,08,23,13,52,19.60
2010,08,23,13,53,19.60
2010,08,23,13,54,19.50
2010,08,23,13,55,19.50
2010,08,23,13,56,19.60
2010,08,23,13,57,19.50
2010,08,23,13,58,19.50
2010,08,23,13,59,19.60
2010,08,23,14,00,19.60
2010,08,23,14,01,19.50
2010,08,23,14,02,19.50
2010,08,23,14,03,19.50
2010,08,23,14,04,19.50
2010,08,23,14,05,19.50
2010,08,23,14,06,19.50
2010,08,23,14,07,19.60
2010,08,23,14,08,19.60
2010,08,23,14,09,19.50
2010,08,23,14,10,19.50
2010,08,23,14,11,19.60
2010,08,23,14,12,19.60
2010,08,23,14,13,19.60
2010,08,23,14,14,19.60
2010,08,23,14,15,19.50
2010,08,23,14,16,19.60
2010,08,23,14,17,19.60
2010,08,23,14,18,19.70
2010,08,23,14,19,19.90
2010,08,23,14,20,20.00
2010,08,23,14,21,20.10
2010,08,23,14,22,20.20
2010,08,23,14,23,20.30
2010,08,23,14,24,20.40
2010,08,23,14,25,20.50
2010,08,23,14,26,20.70
2010,08,23,14,27,20.70
2010,08,23,14,28,20.70
2010,08,23,14,29,20.60
2010,08,23,14,30,20.50
2010,08,23,14,31,20.40
2010,08,23,14,32,20.30
2010,08,23,14,33,20.30
2010,08,23,14,34,20.30
2010,08,23,14,35,20.20
2010,08,23,14,36,20.30
2010,08,23,14,37,20.30
2010,08,23,14,38,20.30
2010,08,23,14,39,20.40
2010,08,23,14,40,20.50
2010,08,23,14,41,20.60
2010,08,23,14,42,20.70
2010,08,23,14,43,20.70
2010,08,23,14,44,20.80
2010,08,23,14,45,20.80
2010,08,23,14,46,20.90
2010,08,23,14,47,20.90
2010,08,23,14,48,20.90
2010,08,23,14,49,20.90
2010,08,23,14,50,20.90
2010,08,23,14,51,20.80
2010,08,23,14,52,20.70
2010,08,23,14,53,20.70
2010,08,23,14,54,20.60
2010,08,23,14,55,20.60
2010,08,23,14,56,20.60
2010,08,23,14,57,20.60
2010,08,23,14,58,20.70
2010,08,23,14,59,20.70
2010,08,23,15,00,20.70
2010,08,23,15,01,20.70
2010,08,23,15,02,20.70
2010,08,23,15,03,20.70
2010,08,23,15,04,20.70
2010,08,23,15,05,20.60
2010,08,23,15,06,20.60
2010,08,23,15,07,20.60
2010,08,23,15,08,20.60
2010,08,23,15,09,20.50
2010,08,23,15,10,20.60
2010,08,23,15,11,20.50
2010,08,23,15,12,20.40
2010,08,23,15,13,20.30
2010,08,23,15,14,20.30
2010,08,23,15,15,20.40
2010,08,23,15,16,20.40
2010,08,23,15,17,20.40
2010,08,23,15,18,20.40
2010,08,23,15,19,20.30
2010,08,23,15,20,20.30
2010,08,23,15,21,20.30
2010,08,23,15,22,20.30
2010,08,23,15,23,20.30
2010,08,23,15,24,20.40
2010,08,23,15,25,20.40
2010,08,23,15,26,20.40
2010,08,23,15,27,20.40
2010,08,23,15,28,20.40
2010,08,23,15,29,20.50
2010,08,23,15,30,20.60
2010,08,23,15,31,20.70
2010,08,23,15,32,20.80
2010,08,23,15,33,20.70
2010,08,23,15,34,20.70
2010,08,23,15,35,20.70
2010,08,23,15,36,20.80
2010,08,23,15,37,20.80
2010,08,23,15,38,20.70
2010,08,23,15,39,20.70
2010,08,23,15,40,20.70
2010,08,23,15,41,20.60
2010,08,23,15,42,20.70
2010,08,23,15,43,20.70
2010,08,23,15,44,20.70
2010,08,23,15,45,20.70
2010,08,23,15,46,20.70
2010,08,23,15,47,20.80
2010,08,23,15,48,20.80
2010,08,23,15,49,20.80
2010,08,23,15,50,20.70
2010,08,23,15,51,20.70
2010,08,23,15,52,20.70
2010,08,23,15,53,20.60
2010,08,23,15,54,20.60
2010,08,23,15,55,20.50
2010,08,23,15,56,20.40
2010,08,23,15,57,20.40
2010,08,23,15,58,20.40
2010,08,23,15,59,20.50
2010,08,23,16,00,20.60
2010,08,23,16,01,20.60
2010,08,23,16,02,20.60
2010,08,23,16,03,20.70
2010,08,23,16,04,20.70
2010,08,23,16,05,20.80
2010,08,23,16,06,20.70
2010,08,23,16,07,20.70
2010,08,23,16,08,20.70
2010,08,23,16,09,20.60
2010,08,23,16,10,20.60
2010,08,23,16,11,20.60
2010,08,23,16,12,20.50
2010,08,23,16,13,20.40
2010,08,23,16,14,20.40
2010,08,23,16,15,20.40
2010,08,23,16,16,20.40
2010,08,23,16,17,20.40
2010,08,23,16,18,20.40
2010,08,23,16,19,20.40
2010,08,23,16,20,20.40
2010,08,23,16,21,20.40
2010,08,23,16,22,20.40
2010,08,23,16,23,20.40
2010,08,23,16,24,20.40
2010,08,23,16,25,20.30
2010,08,23,16,26,20.30
2010,08,23,16,27,20.30
2010,08,23,16,28,20.30
2010,08,23,16,29,20.30
2010,08,23,16,30,20.20
2010,08,23,16,31,20.20
2010,08,23,16,32,20.10
2010,08,23,16,33,20.00
2010,08,23,16,34,20.00
2010,08,23,16,35,19.90
2010,08,23,16,36,19.90
2010,08,23,16,37,19.90
2010,08,23,16,38,19.90
2010,08,23,16,39,19.90
2010,08,23,16,40,20.00
2010,08,23,16,41,20.10
2010,08,23,16,42,20.10
2010,08,23,16,43,20.20
2010,08,23,16,44,20.20
2010,08,23,16,45,20.30
2010,08,23,16,46,20.30
2010,08,23,16,47,20.30
2010,08,23,16,48,20.30
2010,08,23,16,49,20.20
2010,08,23,16,50,20.20
2010,08,23,16,51,20.20
2010,08,23,16,52,20.20
2010,08,23,16,53,20.20
2010,08,23,16,54,20.20
2010,08,23,16,55,20.20
2010,08,23,16,56,20.10
2010,08,23,16,57,20.10
2010,08,23,16,58,20.00
2010,08,23,16,59,20.00
2010,08,23,17,00,19.90
2010,08,23,17,01,19.90
2010,08,23,17,02,19.90
2010,08,23,17,03,19.90
2010,08,23,17,04,19.90
2010,08,23,17,05,19.90
2010,08,23,17,06,19.90
2010,08,23,17,07,19.90
2010,08,23,17,08,20.00
2010,08,23,17,09,20.00
2010,08,23,17,10,20.10
2010,08,23,17,11,20.10
2010,08,23,17,12,20.20
2010,08,23,17,13,20.20
2010,08,23,17,14,20.30
2010,08,23,17,15,20.30
2010,08,23,17,16,20.30
2010,08,23,17,17,20.40
2010,08,23,17,18,20.50
2010,08,23,17,19,20.60